This demonstration page uses our WeatherBlox Daily Observations layout. Learn more.

Left ArrowRight Arrow

38.83388, -104.82136

Hourly Observations for August 14, 2022

Temp ( °F °C ) Dew Point ( °F °C ) Humidity (%) Winds ( mph kmh ) Pressure ( in mb ) Visibility ( mi km ) Precip ( " mm )
12:54 am 00:54 Partly Cloudy 68 20 50 10 53 53 N 6 9 29.95 1014 10 16 0.00 0.00
1:54 am 01:54 Mostly Clear 69 20.6 50 10 51 51 NNW 3 6 29.93 1014 10 16 0.00 0.00
2:54 am 02:54 Mostly Clear 65 18.3 49 9.4 56 56 N 8 13 29.94 1014 10 16 0.00 0.00
3:54 am 03:54 Mostly Clear 64 17.8 48 8.9 56 56 N 7 11 29.94 1014 10 16 0.00 0.00
4:54 am 04:54 Mostly Clear 63 17.2 48 8.9 58 58 N 8 13 29.93 1014 10 16 0.00 0.00
5:54 am 05:54 Partly Cloudy 62 16.7 48 8.9 60 60 N 7 11 29.93 1014 10 16 0.00 0.00
6:54 am 06:54 Partly Cloudy 66 18.9 48 8.9 52 52 N 9 15 29.95 1014 10 16 0.00 0.00
7:54 am 07:54 Mostly Sunny 74 23.3 50 10 43 43 NE 7 11 29.95 1014 10 16 0.00 0.00
8:54 am 08:54 Mostly Sunny 80 26.7 47 8.3 31 31 E 8 13 29.95 1014 10 16 0.00 0.00
9:54 am 09:54 Mostly Sunny 83 28.3 47 8.3 28 28 E 8 13 29.93 1014 10 16 0.00 0.00
10:54 am 10:54 Mostly Sunny 85 29.4 48 8.9 28 28 SSE 5 7 29.92 1013 10 16 0.00 0.00
11:54 am 11:54 Mostly Sunny 86 30 48 8.9 27 27 ESE 7 11 29.91 1013 10 16 0.00 0.00
12:54 pm 12:54 Mostly Sunny 88 31.1 48 8.9 25 25 S 6 9 29.90 1013 10 16 0.00 0.00
1:54 pm 13:54 Mostly Sunny 91 32.8 47 8.3 22 22 Calm 29.86 1011 10 16 0.00 0.00
2:54 pm 14:54 Partly Cloudy with Nearby Thunderstorms 92 33.3 46 7.8 21 21 VRB 3 6 29.85 1011 10 16 0.00 0.00
3:54 pm 15:54 Mostly Cloudy with Nearby Thunderstorms 83 28.3 47 8.3 28 28 NW 20 31 29.88 1012 10 16 0.00 0.00
4:16 pm 16:16 Mostly Cloudy 82 27.8 50 10 33 33 W 9 15 29.60 1003 10 16 0.00 0.00
4:54 pm 16:54 Mostly Cloudy 80 26.7 50 10 35 35 WNW 9 15 29.87 1012 10 16 0.00 0.00
5:54 pm 17:54 Mostly Cloudy 83 28.3 48 8.9 30 30 NNE 17 28 29.86 1011 10 16 0.00 0.00
6:54 pm 18:54 Mostly Cloudy 81 27.2 49 9.4 33 33 NE 14 22 29.84 1010 10 16 0.00 0.00
7:54 pm 19:54 Partly Cloudy 77 25 50 10 39 39 NW 16 26 29.85 1011 10 16 0.00 0.00
8:22 pm 20:22 Mostly Cloudy 77 25 51 10.6 40 40 NNW 20 31 29.67 1005 10 16 0.00 0.00
8:54 pm 20:54 Mostly Cloudy 76 24.4 50 10 40 40 N 20 31 29.86 1011 10 16 0.00 0.00
9:54 pm 21:54 Mostly Cloudy 73 22.8 54 12.2 51 51 NNW 18 30 29.90 1013 10 16 0.00 0.00
10:54 pm 22:54 Mostly Cloudy 70 21.1 54 12.2 57 57 NNW 15 24 29.90 1012 10 16 0.00 0.00
11:54 pm 23:54 Mostly Cloudy 70 21.1 53 11.7 55 55 NNW 17 28 29.89 1012 10 16 0.00 0.00

Powered by AerisWeather